CAPE
0 0 0 0 0 0 0 0 1 0 0 0 0 0 0 0 0 0 0 0 2 0 0 0 0 0 0 0 0 0 0 0 4 24 9 9 1 0 16 20 12 19 6 1
0 0 0 0 0 0 0 0 0 0 0 0 0 0 0 0 0 3 0 2 0 0 0 0 0 0 0 0 0 2 1 2 5 8 11 15 20 10 1 0 0 0 0 0
0 0 0 0 0 0 0 0 0 0 0 0 0 1 4 3 2 6 3 1 0 1 0 0 0 0 0 0 0 4 5 5 4 2 0 0 0 0 0 0 0 0 0 0
0 0 0 0 0 0 0 0 0 0 0 0 0 3 0 11 1 0 0 0 0 0 0 0 0 0 0 0 0 3 3 5 1 0 0 0 0 0 0 0 0 0 0 0
0 0 0 0 0 0 0 0 0 0 0 0 4 12 15 0 0 0 0 0 0 0 0 0 0 0 0 0 0 10 8 3 1 1 0 0 0 0 0 0 0 0 0 0
0 0 0 0 0 0 0 0 0 0 0 0 0 1 9 1 0 0 0 5 0 0 0 0 0 0 0 0 0 1 2 6 1 0 0 0 0 0 0 0 0 0 0 0
0 0 0 1 0 0 0 4 0 4 10 0 1 1 2 0 0 0 1 1 0 0 0 0 0 0 0 0 0 0 3 2 1 0 0 0 0 0 0 0 2 2 2 3
0 0 0 0 0 0 8 8 5 22 4 0 0 0 0 0 0 0 0 0 0 0 0 0 0 0 0 0 0 2 3 0 0 0 0 0 0 0 0 0 1 1 1 6
3 0 0 6 0 1 5 15 2 0 0 0 0 0 0 0 0 0 0 0 0 0 0 0 10 7 1 1 2 0 0 0 0 0 0 0 1 1 0 1 0 2 2 1
1 0 5 12 9 0 0 0 1 0 1 0 0 0 0 0 0 0 0 0 0 0 0 0 15 25 19 8 0 0 0 0 0 0 0 0 0 2 1 0 1 0 2 3
5 2 10 5 0 0 0 0 0 0 0 0 0 0 0 0 0 0 0 0 0 0 2 6 19 27 23 6 0 0 0 0 0 0 2 0 0 0 0 1 0 2 1 1
3 13 2 2 2 1 0 0 0 0 0 0 0 0 0 0 0 0 0 0 0 0 3 6 16 15 9 0 0 0 0 0 1 0 4 3 2 1 0 0 0 0 0 0
0 0 0 3 0 0 0 0 0 0 0 0 0 0 0 0 0 0 0 0 6 9 7 6 15 10 0 0 0 0 0 0 2 0 1 3 2 0 1 0 0 0 0 0
0 0 1 3 1 0 0 0 0 0 0 0 0 0 0 0 0 0 0 0 0 0 3 2 9 0 1 1 0 0 0 0 0 3 0 1 1 0 0 1 3 2 0 0
0 0 0 0 0 0 0 0 0 0 0 0 0 0 0 0 0 0 0 0 0 5 6 3 0 0 1 0 0 1 1 1 0 0 0 0 1 0 0 0 0 2 0 0
0 0 0 0 0 0 0 0 0 0 0 0 0 0 0 0 0 0 0 0 1 6 0 0 0 1 1 2 1 1 0 0 0 0 0 0 0 0 0 0 1 1 1 0
0 0 0 0 0 0 0 0 0 0 0 0 0 0 0 0 0 0 0 0 0 0 0 1 1 1 0 1 2 2 0 0 0 0 0 0 0 0 0 0 2 1 2 0
0 0 0 0 0 0 0 0 0 0 0 0 0 0 0 0 0 0 1 1 2 1 1 2 1 1 0 2 2 2 0 0 0 0 0 0 0 0 0 0 0 2 1 0
0 0 0 0 0 0 0 0 0 0 0 0 0 0 0 0 0 0 0 0 1 1 1 1 0 0 0 0 2 2 0 0 0 0 0 0 0 0 0 0 0 3 2 1
0 0 0 0 0 0 0 0 0 0 0 0 0 0 0 0 0 0 0 0 1 2 1 0 0 1 0 5 0 0 0 3 2 0 4 3 1 1 0 0 0 1 2 2
0 0 0 0 0 0 0 0 0 0 0 0 0 0 0 0 0 0 4 6 0 0 0 0 0 1 2 4 0 3 5 5 4 7 9 8 5 0 0 0 1 0 2 2
0 0 0 0 0 0 0 0 0 0 0 0 0 0 0 1 1 0 0 1 1 0 0 1 2 1 1 1 3 5 5 1 5 4 1 1 2 0 1 3 0 0 1 1
0 0 0 0 0 0 0 0 0 0 0 1 0 0 1 5 0 2 0 0 1 0 0 2 1 0 1 1 2 5 5 7 6 6 8 6 5 1 1 1 1 0 1 1
0 0 0 0 0 0 0 0 0 0 0 0 0 0 4 1 1 1 1 0 0 0 0 0 0 1 0 1 4 3 5 5 3 0 7 3 5 2 0 0 1 1 2 0
0 0 0 0 0 0 0 0 0 0 0 1 0 2 1 2 0 0 0 1 0 0 0 0 0 2 2 4 5 3 4 0 0 2 3 2 3 4 5 0 1 1 2 2
0 0 0 0 0 0 0 1 1 0 0 1 1 4 0 0 0 1 0 0 0 0 0 0 0 0 4 6 3 3 2 3 0 0 1 1 2 1 0 0 0 1 1 2
0 0 0 0 0 1 1 0 0 1 2 0 1 0 5 0 0 1 1 1 0 1 1 1 2 1 6 8 9 8 4 4 1 0 1 2 0 0 0 0 1 1 1 1
CIN
0 0 0 0 0 0 0 0 -1 0 0 0 0 0 0 0 0 0 -2 0 -2 -1 0 0 0 0 0 0 0 0 -3 -1 -2 -1 0 -1 0 0 -1 -1 -1 -1 0 -1
0 0 0 0 0 0 0 0 0 0 0 0 0 0 0 0 -2 -2 -1 -2 0 0 0 0 0 0 0 0 -2 -1 -3 -3 -2 -1 -1 -1 -1 -1 -1 0 0 0 0 0
0 0 0 0 0 0 0 0 0 0 0 0 0 -1 -1 -1 -2 -1 -1 -1 0 -1 0 0 0 0 0 0 -1 -2 -2 -1 -1 -2 -2 -1 0 0 0 0 0 0 0 0
0 0 0 0 0 0 0 0 0 0 0 0 0 -2 0 -4 -1 -1 0 0 -1 0 0 0 0 0 0 0 0 -2 -2 -1 -3 -1 0 0 0 0 0 0 0 0 0 0
0 0 0 0 0 0 0 0 0 0 0 0 -2 -2 -1 0 0 0 0 0 -2 0 0 0 0 0 0 0 -3 -2 -1 -2 -4 -4 0 0 -2 0 0 0 0 0 0 0
0 0 0 0 0 0 0 0 0 0 0 0 0 0 0 0 0 0 -1 -1 0 0 0 0 0 0 0 0 0 -1 -1 -2 -2 0 0 0 0 0 0 0 0 0 -2 -1
0 0 0 -2 0 0 -1 -3 -1 -3 -2 0 -1 0 0 0 0 0 -1 -13 0 0 0 0 0 0 0 0 0 0 -2 -2 -1 0 0 0 0 0 0 0 -2 -2 -2 -1
0 0 0 0 0 0 -1 -1 -1 0 -1 0 0 0 0 0 0 0 0 0 0 0 0 0 0 0 0 0 -2 -2 -2 -1 -1 0 0 0 0 0 -2 -3 -3 -4 -2 -1
-4 0 -1 -4 0 -1 -2 -1 -8 0 0 0 0 0 0 0 0 0 0 0 0 0 0 -1 -2 -2 -2 -3 -3 -1 0 0 0 0 0 -1 -2 -2 -2 -2 -3 -1 -1 -2
-7 0 -2 -2 -2 0 0 0 0 0 0 0 0 0 0 0 0 0 0 0 0 0 0 -1 -2 -3 -2 -3 0 0 0 0 0 0 0 0 -1 -2 -2 -3 -1 -2 -2 -2
-1 -1 -1 -2 -7 0 0 0 0 0 0 0 0 0 0 0 0 0 0 0 0 0 -2 -2 -2 -2 -2 -2 -2 0 0 0 0 0 -1 -2 -1 -1 -1 -2 -1 -1 -2 -2
0 -3 -3 0 0 0 0 0 0 0 0 0 0 0 0 0 0 0 0 0 0 0 -3 -3 -2 -3 -3 0 0 0 0 0 -2 -1 -1 -1 -1 -2 0 0 0 0 0 0
0 -1 0 0 0 0 0 0 0 0 0 0 0 0 0 0 0 0 0 -1 -2 -1 -2 -2 -2 -1 0 0 0 0 0 0 -1 0 -2 -1 -1 -3 -2 -4 0 0 0 0
0 0 0 0 0 0 0 0 0 0 0 0 0 0 0 0 0 0 0 0 0 -2 -2 -1 -1 -1 -1 -1 0 0 0 0 -1 -1 -2 -2 -2 -1 0 -1 -1 -2 -1 0
0 0 0 0 0 0 0 0 0 0 0 0 0 0 0 0 0 0 0 0 0 -2 -1 -2 -4 0 0 0 0 -1 0 -1 -1 0 -1 -1 -1 0 0 -1 -2 -2 -2 -1
0 0 0 0 0 0 0 0 0 0 0 0 0 0 0 0 0 0 0 -1 -10 -1 -1 0 0 0 0 0 0 -1 -1 0 -2 -2 0 0 0 -2 -2 -3 -3 -1 -1 -2
0 0 0 0 0 0 0 0 0 0 0 0 0 0 0 0 0 0 0 0 0 0 0 0 0 0 0 0 0 -1 0 0 0 -2 0 0 0 0 -1 -3 -2 -1 -1 -1
0 0 0 0 0 0 0 0 0 0 0 0 0 0 0 0 0 0 0 0 0 0 0 0 0 0 0 0 -1 -1 0 0 0 -1 -1 0 -1 -2 -1 -3 -3 -1 -1 -1
0 0 0 0 0 0 0 0 0 0 0 0 0 0 0 0 0 0 0 0 0 0 0 0 0 0 0 0 -2 -1 0 -1 0 0 0 -2 0 -1 -1 -2 -2 -1 -1 -1
0 0 0 0 0 0 0 0 0 0 0 0 0 0 0 0 0 0 0 0 0 0 0 0 0 0 -3 -1 -2 -1 0 -1 -1 0 -1 -1 -1 -2 -1 0 0 -1 -1 -1
0 0 0 0 0 0 0 0 0 0 0 0 0 0 0 0 0 0 0 0 -1 0 0 0 -1 -1 0 -1 -2 -1 0 0 0 -1 -1 0 -1 0 0 0 -1 -1 -1 -1
0 0 0 0 0 0 0 0 0 0 0 0 0 0 -8 -2 0 0 0 0 0 0 0 -1 -1 -1 -1 -5 -1 0 0 -1 -1 -1 -1 -1 -1 -1 -1 -1 -1 -1 -2 -2
0 0 0 0 0 0 0 0 0 0 0 0 0 0 -4 0 -1 0 -1 0 0 0 0 -1 -1 0 -3 -3 -2 0 -1 -1 0 -1 0 -1 -1 -1 -2 -1 -1 -1 -2 -1
0 0 0 0 0 0 0 0 0 0 -1 0 0 0 -1 0 0 0 0 0 0 0 0 -2 0 -4 -3 -4 0 -1 0 -1 -1 -1 0 0 0 0 -2 -1 -1 -1 -1 0
0 0 0 0 0 0 0 0 0 -1 -1 0 -1 -3 -1 0 0 0 0 0 0 0 0 -3 0 -5 -2 -2 -1 -1 0 -1 -1 0 0 -1 -1 0 0 -1 -1 0 -1 0
0 0 0 0 0 0 0 0 0 0 0 0 0 -1 -1 0 0 0 0 0 0 0 0 0 0 -3 -1 0 -1 -1 0 0 -2 -1 -1 -1 -1 -1 -1 -1 0 0 0 0
0 0 0 0 0 -1 0 -1 -1 -1 -1 -1 0 -2 -1 0 0 0 0 0 0 0 0 0 0 0 0 0 0 0 0 0 -1 0 0 0 0 0 -1 0 0 0 0 0
Wind_Speed
19 19 18 19 21 20 16 16 19 20 26 31 34 35 32 26 30 34 36 36 34 36 36 35 38 39 39 39 38 38 38 41 41 36 33 33 32 31 29 29 31 30 30 29
25 24 24 25 23 19 17 18 18 22 26 30 30 30 26 29 34 37 37 34 35 34 35 36 38 39 39 39 38 38 40 40 36 35 33 31 30 30 30 31 31 30 30 29
28 31 32 30 25 19 19 21 22 27 29 31 33 30 29 35 36 38 35 35 36 35 34 36 38 38 39 39 38 40 37 37 35 34 33 32 30 30 31 32 32 31 31 31
30 32 33 25 23 21 23 22 23 24 28 28 32 31 32 35 35 37 36 36 34 33 35 35 36 38 39 39 38 38 37 35 33 33 32 31 31 31 32 32 32 32 31 31
30 30 29 27 22 21 23 25 24 23 25 33 37 39 36 34 35 35 32 31 31 31 33 36 38 39 39 39 37 37 35 33 32 31 31 30 31 32 32 31 31 31 31 32
27 32 34 27 23 21 19 29 21 29 33 41 43 44 40 38 34 32 29 32 32 33 35 37 38 37 38 37 36 35 32 31 31 29 29 30 31 31 30 30 30 31 32 31
24 28 26 23 20 19 28 30 30 33 35 36 36 33 33 32 32 31 32 33 36 35 37 38 37 36 36 35 35 32 31 31 29 28 28 29 29 30 30 30 30 31 30 30
24 29 28 18 20 30 29 30 32 35 34 34 31 31 32 33 33 33 35 38 37 37 38 38 36 34 35 35 33 31 31 29 27 27 27 27 29 29 29 29 30 30 31 31
21 23 22 23 24 27 30 33 32 30 30 30 32 33 33 34 35 37 39 40 39 39 41 40 37 34 35 33 32 30 29 27 26 25 25 26 28 29 28 29 30 30 30 31
28 24 24 28 32 29 30 32 29 28 28 30 33 33 35 37 39 41 42 43 43 43 43 43 38 34 32 32 29 28 27 25 24 23 26 26 27 26 27 28 28 29 29 30
29 29 28 24 27 29 28 28 26 27 30 32 34 37 39 41 42 42 43 43 43 43 43 41 39 36 33 30 27 26 25 23 22 23 24 26 26 25 26 26 26 27 27 26
29 30 30 31 28 25 27 26 28 31 33 34 36 38 41 43 43 44 45 44 43 43 43 42 40 36 32 27 25 25 23 22 21 23 24 23 24 25 22 22 24 23 24 23
31 30 29 25 25 22 26 28 30 32 34 37 38 39 41 43 44 45 43 42 43 44 44 42 39 34 29 26 24 21 19 20 20 20 21 22 24 25 26 23 21 21 23 25
24 23 26 24 26 24 27 30 32 34 36 38 40 40 42 44 44 43 43 42 41 42 41 40 36 29 24 22 18 17 16 17 18 19 19 20 22 24 23 24 25 25 24 25
24 25 23 22 24 27 30 32 36 38 41 42 42 42 43 45 44 44 42 39 38 38 37 38 32 25 22 19 16 15 15 16 18 18 18 20 20 22 22 23 23 24 25 25
22 23 24 26 28 31 34 36 39 42 43 45 44 44 43 43 44 44 41 37 34 37 35 33 24 18 15 15 14 13 13 14 15 16 17 19 21 22 22 23 22 23 24 28
24 26 28 30 33 35 36 38 40 42 44 43 44 45 45 45 44 41 39 36 29 28 28 22 16 13 12 12 14 14 14 15 15 16 17 19 20 21 22 22 22 22 23 25
23 25 28 31 34 37 39 40 39 40 41 43 44 44 44 44 44 42 37 32 26 24 21 13 10 13 13 14 15 15 15 16 16 17 18 19 20 21 21 20 20 21 22 23
26 28 31 33 35 37 38 39 40 40 41 42 42 43 42 40 37 35 32 28 24 23 19 14 13 13 14 15 15 15 15 16 17 17 17 18 19 20 19 19 19 20 21 22
30 32 34 35 35 36 38 37 38 39 40 40 40 40 41 38 35 33 28 23 20 18 16 14 14 14 14 14 16 16 17 17 16 17 17 18 19 19 19 18 18 19 20 20
34 35 35 36 37 36 34 35 37 39 38 38 38 38 37 34 32 29 27 24 20 15 14 14 15 16 15 16 15 17 19 18 17 17 18 18 19 19 19 18 17 17 18 19
35 35 34 35 36 36 34 33 34 34 35 38 36 33 33 32 33 31 22 18 19 15 14 15 16 17 17 16 15 17 17 18 18 18 19 19 19 19 19 18 17 17 17 17
33 33 34 34 34 34 34 33 32 32 34 34 34 32 30 28 27 24 22 20 17 15 14 16 16 16 16 16 14 15 16 17 17 18 17 17 19 19 19 19 18 16 16 16
33 33 33 32 30 32 36 35 33 32 31 30 29 26 24 26 22 17 16 17 17 16 16 18 16 15 16 15 14 16 16 17 17 18 17 17 15 16 17 18 18 16 15 15
32 32 31 30 32 33 33 33 33 32 31 29 27 26 23 20 16 18 16 14 15 16 16 16 15 14 15 15 14 15 17 17 18 18 18 18 17 16 15 15 16 16 15 14
31 30 28 29 31 31 31 31 32 32 31 28 26 27 21 19 13 12 11 10 11 14 16 17 16 15 14 13 14 14 16 18 19 19 17 17 16 16 15 14 14 15 14 13
26 26 29 31 30 30 30 30 30 31 29 27 27 27 21 19 13 10 8 8 8 9 12 15 15 15 12 13 14 14 15 17 19 19 17 16 16 17 17 16 14 14 14 13
Wind_Direction
3 358 355 347 338 332 320 313 319 325 326 325 326 326 328 334 334 333 333 335 336 335 336 336 337 338 339 340 342 344 342 340 340 341 341 343 344 343 344 342 341 340 338 338
352 355 353 345 334 328 330 329 317 320 323 330 333 334 336 334 332 332 333 333 335 335 335 337 338 340 341 341 341 342 341 343 345 346 347 347 346 346 344 343 342 340 339 337
344 345 345 347 356 355 348 342 335 330 332 334 333 333 332 331 332 332 333 334 336 337 339 339 340 341 342 341 342 342 342 343 345 345 346 348 348 346 344 342 341 340 339 337
340 343 343 356 349 341 338 343 342 337 336 339 338 336 334 332 334 335 334 335 337 338 338 341 342 341 340 341 341 341 341 342 343 346 346 347 346 345 343 343 342 341 340 340
341 338 337 346 354 355 348 340 345 347 345 338 336 331 330 340 338 336 335 336 336 338 339 338 338 339 339 339 340 341 341 343 344 345 345 346 346 345 345 345 344 344 343 341
341 336 336 346 352 356 358 339 1 343 337 332 334 330 331 338 342 341 337 336 337 337 336 336 337 338 339 339 341 342 344 345 346 347 346 346 346 346 347 347 347 347 345 344
337 335 337 343 357 3 339 336 340 336 334 335 332 335 338 339 339 339 338 335 333 333 334 335 336 336 337 338 338 342 343 344 345 346 347 348 348 349 349 349 349 349 349 348
341 338 338 2 352 339 337 334 333 336 339 338 341 340 339 338 337 337 335 334 335 333 333 333 333 333 333 334 337 339 340 342 344 346 349 350 350 351 351 352 352 352 351 349
335 334 335 337 332 334 336 335 337 338 342 341 339 339 339 338 337 335 334 335 335 333 331 332 331 330 330 332 335 337 340 342 344 347 350 351 351 353 354 355 354 354 354 353
328 335 330 333 331 337 339 337 342 343 342 343 341 342 340 338 335 333 334 334 334 332 331 331 331 330 329 332 334 336 339 342 345 348 350 353 355 357 357 357 358 358 357 357
321 325 329 334 339 337 340 343 344 343 342 341 339 337 336 334 334 334 333 334 334 333 332 332 332 330 331 332 334 336 338 341 345 349 352 355 359 1 2 4 5 3 3 3
324 332 331 332 339 344 343 344 343 341 340 339 337 336 335 334 334 334 333 333 334 334 334 332 331 330 330 332 334 334 336 341 346 349 354 -0 3 4 9 11 10 11 11 12
324 331 335 339 343 346 344 343 342 339 338 336 335 334 335 334 334 333 333 333 334 333 333 332 331 330 332 335 336 338 341 345 349 354 0 4 5 6 6 12 15 16 15 13
336 341 337 339 338 342 341 339 339 338 338 337 335 334 333 333 333 334 334 334 335 335 337 338 337 335 340 343 348 350 352 353 356 1 7 8 8 8 10 11 12 14 15 15
339 341 341 343 341 339 340 339 337 336 336 335 336 335 334 333 333 334 334 335 336 338 340 342 343 344 347 352 357 1 5 2 3 8 12 11 11 11 12 14 14 15 16 16
343 344 343 340 339 339 338 336 335 335 335 335 335 336 336 335 334 334 334 335 336 339 342 345 351 0 10 12 17 17 17 15 13 13 13 12 12 12 13 15 16 17 18 13
336 336 338 337 337 337 336 335 335 334 335 336 336 336 336 336 337 338 338 339 340 344 349 357 10 29 40 37 25 21 18 16 16 15 14 14 13 14 14 16 18 18 20 16
341 340 339 337 336 335 334 335 336 336 337 336 336 337 338 338 338 338 341 343 346 351 359 18 48 42 40 27 22 21 21 18 16 15 15 14 14 14 16 18 20 20 20 20
339 337 336 335 334 334 335 335 336 336 337 338 338 338 339 340 341 343 346 349 352 356 10 33 41 40 30 24 24 24 20 15 14 15 16 15 16 15 16 19 21 21 21 22
334 334 332 333 334 335 335 336 337 338 339 340 340 341 341 343 345 346 349 351 357 6 17 31 34 28 26 23 21 18 14 15 16 17 18 16 15 14 15 18 21 22 22 21
330 331 331 332 333 335 336 337 338 339 342 344 343 342 344 346 348 349 351 357 8 23 27 29 23 21 19 16 20 15 13 15 17 17 17 16 15 16 14 18 21 22 23 22
330 330 331 333 333 334 337 338 339 341 343 345 346 347 348 349 349 350 1 12 9 20 24 18 17 14 11 11 12 10 11 13 16 17 18 18 17 16 15 16 19 21 22 22
329 331 332 333 334 335 337 338 340 342 343 346 348 349 351 353 355 357 359 6 7 10 13 9 8 10 10 9 10 10 11 10 11 12 14 16 17 17 16 15 18 21 22 23
330 331 332 334 336 337 336 339 341 342 342 345 348 351 352 353 359 8 7 4 4 5 2 358 1 5 7 9 10 8 7 7 9 10 11 13 17 19 18 16 17 20 22 24
329 330 332 334 334 335 337 339 341 343 343 344 347 350 353 353 353 358 3 5 0 360 359 358 0 4 5 9 11 8 6 5 5 6 9 11 14 15 17 17 17 18 23 24
330 332 334 335 334 335 337 339 339 341 342 342 345 348 351 355 354 356 1 5 4 359 357 358 359 359 1 7 9 8 7 4 4 5 7 10 12 13 14 14 14 16 21 23
333 334 334 335 337 337 338 338 338 340 341 341 342 346 348 350 351 350 349 351 352 356 357 356 357 357 3 2 2 4 2 2 2 4 7 9 10 11 11 10 11 14 17 21